Location: Unspecified
(48.7670°N, 0.0000°E)
Time: 05:25:54
(UTC+00:00)

Altair - Pass Details

Date: 29 June 2019
Orbit: 1501 x 1683 km, 47.2° (Epoch: 22 July)

Event Time Altitude Azimuth Distance (km) Brightness Sun altitude
Rises 17:33:42 0° 221° (SW) 4,649 10.4 22.0°
Reaches altitude 10° 17:36:50 10° 216° (SW) 3,685 9.9 21.5°
Maximum altitude 17:45:34 48° 146° (SE) 1,969 8.0 20.1°
Drops below altitude 10° 17:54:39 10° 77° (ENE) 3,824 9.1 18.7°
Sets 17:57:56 0° 72° (ENE) 4,837 9.6 18.1°
